Погода в Муминабаде

Узбекистан     39°03′21″N   66°55′27″E
темп.,
°C
ветер,
м/с
пор.,
м/с
влажн.,
%
обл.,
%
осадки,
мм/ч
давл.,
гПа
погр.,
м
6 августа, пт
пт623:00+25вюв33170 0.0 100529
02:00+24вюв33220 0.0 100527
05:00+24вюв33250 0.0 100524
08:00+29св22193 0.0 1004332
11:00+34сз54151 0.0 10032841
14:00+36сз541260 0.0 10024074
17:00+34св541478 0.0 10022697
20:00+29св611180 0.0 1003325
7 августа, сб
сб723:00+26в34260 0.0 100450
02:00+25в34270 0.0 100443
05:00+24вюв33270 0.0 100436
08:00+30св23191 0.0 1005434
11:00+35с44131 0.0 10043116
14:00+37ссз651149 0.0 10034363
17:00+36ссв641253 0.0 10034216
20:00+29св46190 0.0 100483
8 августа, вс
вс823:00+27в34230 0.0 100557
02:00+26в34240 0.0 100643
05:00+25в34240 0.0 100636
08:00+31всв23170 0.0 1007393
11:00+36ссз54110 0.0 10063062
14:00+38сз5491 0.0 10044247
17:00+37ссв74101 0.0 10043869
20:00+31св511130 0.0 1006278
9 августа, пн
пн923:00+28вюв33170 0.0 100635
02:00+26в34190 0.0 100646
05:00+25в23210 0.0 100729
08:00+31ссв11160 0.0 1008283
11:00+35сз43110 0.0 10071822
14:00+37сз4490 0.0 10063231
17:00+36с75100 0.0 10061617
20:00+28св45170 0.0 100889
10 августа, вт
вт1023:00+25всв35200 0.0 100878
02:00+24всв34210 0.0 100751
05:00+23всв23220 0.0 100734
08:00+29с22150 0.0 1007251
11:00+34зсз43120 0.0 10061085
14:00+36з5490 0.0 10052235
17:00+36сз4390 0.0 10042593
20:00+28св35140 0.0 100567